TimeEST,TemperatureF,Dew PointF,Humidity,Sea Level PressureIn,VisibilityMPH,Wind Direction,Wind SpeedMPH,Gust SpeedMPH,PrecipitationIn,Events,Conditions,WindDirDegrees,DateUTC
12:11 AM,44.6,44.6,100,29.87,1.0,WNW,6.9,-,N/A,,Overcast,300,2013-02-24 05:11:00
12:50 AM,44.6,44.6,100,29.88,1.0,WNW,5.8,-,N/A,,Light Drizzle,290,2013-02-24 05:50:00
12:58 AM,45.3,45.3,100,29.89,1.2,WNW,5.8,-,0.00,,Light Drizzle,290,2013-02-24 05:58:00
1:25 AM,46.4,46.4,100,29.89,1.2,West,5.8,-,N/A,,Light Drizzle,280,2013-02-24 06:25:00
1:58 AM,45.5,45.5,100,29.89,1.5,WNW,5.8,-,0.01,,Light Drizzle,290,2013-02-24 06:58:00
2:22 AM,46.4,46.4,100,29.89,3.0,West,8.1,-,N/A,,Overcast,280,2013-02-24 07:22:00
2:58 AM,45.7,45.7,100,29.89,3.0,WNW,8.1,-,0.00,,Overcast,290,2013-02-24 07:58:00
3:08 AM,46.4,46.4,100,29.88,5.0,West,8.1,-,N/A,,Overcast,270,2013-02-24 08:08:00
3:18 AM,46.4,46.4,100,29.88,10.0,West,6.9,-,N/A,,Overcast,280,2013-02-24 08:18:00
3:33 AM,46.4,46.4,100,29.87,10.0,West,6.9,-,N/A,,Overcast,270,2013-02-24 08:33:00
3:58 AM,45.5,45.5,100,29.88,10.0,West,8.1,-,N/A,,Overcast,280,2013-02-24 08:58:00
4:08 AM,46.4,46.4,100,29.87,10.0,West,5.8,-,N/A,,Overcast,270,2013-02-24 09:08:00
4:33 AM,46.4,46.4,100,29.88,9.0,West,6.9,-,N/A,,Overcast,270,2013-02-24 09:33:00
4:53 AM,44.6,44.6,100,29.88,10.0,West,4.6,-,N/A,,Overcast,270,2013-02-24 09:53:00
4:58 AM,45.3,45.1,99,29.89,10.0,West,4.6,-,N/A,,Overcast,270,2013-02-24 09:58:00
5:23 AM,44.6,44.6,100,29.89,9.0,West,9.2,-,N/A,,Overcast,270,2013-02-24 10:23:00
5:33 AM,44.6,44.6,100,29.90,9.0,West,11.5,-,N/A,,Overcast,280,2013-02-24 10:33:00
5:43 AM,44.6,44.6,100,29.91,10.0,WNW,10.4,-,N/A,,Overcast,290,2013-02-24 10:43:00
5:48 AM,44.6,44.6,100,29.91,9.0,West,10.4,-,N/A,,Overcast,280,2013-02-24 10:48:00
5:58 AM,44.8,44.6,99,29.92,7.0,West,8.1,-,N/A,,Overcast,270,2013-02-24 10:58:00
6:58 AM,45.1,45.0,99,29.95,7.0,WNW,8.1,-,N/A,,Overcast,290,2013-02-24 11:58:00
7:18 AM,44.6,44.6,100,29.94,7.0,West,5.8,-,N/A,,Overcast,280,2013-02-24 12:18:00
7:58 AM,45.9,45.5,99,29.96,3.0,WNW,8.1,-,N/A,,Overcast,290,2013-02-24 12:58:00
8:03 AM,46.4,46.4,100,29.95,3.0,West,8.1,-,N/A,,Overcast,280,2013-02-24 13:03:00
8:33 AM,46.4,46.4,100,29.97,4.0,WNW,9.2,-,N/A,,Overcast,300,2013-02-24 13:33:00
8:58 AM,46.8,46.0,97,30.00,5.0,WNW,6.9,-,N/A,,Overcast,290,2013-02-24 13:58:00
9:03 AM,46.4,46.4,100,29.99,5.0,WNW,5.8,-,N/A,,Overcast,290,2013-02-24 14:03:00
9:58 AM,47.8,46.2,94,30.01,7.0,NW,6.9,-,N/A,,Mostly Cloudy,320,2013-02-24 14:58:00
10:18 AM,48.2,46.4,93,30.00,10.0,NNW,5.8,-,N/A,,Mostly Cloudy,340,2013-02-24 15:18:00
10:43 AM,50.0,46.4,87,30.01,10.0,Variable,4.6,-,N/A,,Mostly Cloudy,0,2013-02-24 15:43:00
10:58 AM,50.5,45.9,84,30.01,10.0,West,5.8,-,N/A,,Mostly Cloudy,270,2013-02-24 15:58:00
11:03 AM,51.8,44.6,76,30.01,10.0,Variable,3.5,-,N/A,,Scattered Clouds,0,2013-02-24 16:03:00
11:58 AM,55.2,45.5,70,30.01,10.0,Variable,4.6,-,N/A,,Partly Cloudy,0,2013-02-24 16:58:00
12:58 PM,59.4,44.4,58,29.99,10.0,Variable,3.5,-,N/A,,Partly Cloudy,0,2013-02-24 17:58:00
1:58 PM,62.6,41.5,46,29.96,10.0,WNW,8.1,-,N/A,,Clear,290,2013-02-24 18:58:00
2:58 PM,64.4,42.1,44,29.95,10.0,West,8.1,-,N/A,,Clear,280,2013-02-24 19:58:00
3:58 PM,66.0,36.5,34,29.94,10.0,NW,8.1,-,N/A,,Clear,320,2013-02-24 20:58:00
4:58 PM,65.5,38.3,37,29.94,10.0,NW,8.1,-,N/A,,Clear,320,2013-02-24 21:58:00
5:58 PM,61.3,37.6,41,29.96,10.0,North,3.5,-,N/A,,Clear,360,2013-02-24 22:58:00
6:58 PM,54.1,40.8,61,29.99,10.0,NNE,2.3,-,N/A,,Clear,30,2013-02-24 23:58:00
7:58 PM,47.3,42.6,84,29.99,10.0,Calm,Calm,-,N/A,,Clear,0,2013-02-25 00:58:00
8:58 PM,44.8,41.7,89,30.00,10.0,Calm,Calm,-,N/A,,Clear,0,2013-02-25 01:58:00
9:58 PM,41.5,39.4,92,30.01,10.0,NNE,2.3,-,N/A,,Clear,20,2013-02-25 02:58:00
10:58 PM,39.7,38.7,96,30.01,10.0,NNE,2.3,-,N/A,,Clear,20,2013-02-25 03:58:00
11:58 PM,39.9,38.7,95,30.01,10.0,North,2.3,-,N/A,,Clear,360,2013-02-25 04:58:00